Location: Most
(50.5330°N, 13.6500°E)
Time: 13:39:52
(UTC+01:00)

N. Korean satellite - Pass Details

Date: 30 October 2021
Orbit: 446 x 495 km, 97.3° (Epoch: 06 December)

Event Time Altitude Azimuth Distance (km) Brightness Sun altitude
Rises 06:15:37 0° 16° (NNE) 2,594 10.4 -15.9°
Reaches altitude 10° 06:17:45 10° 20° (NNE) 1,701 9.5 -15.6°
Maximum altitude 06:21:21 58° 100° (E) 577 7.2 -15.0°
Drops below altitude 10° 06:24:54 10° 181° (S) 1,664 9.3 -14.5°
Sets 06:26:58 0° 185° (S) 2,530 10.2 -14.1°
